Houma, LA

8:41 PM CDT on April 27, 2017 (GMT -0500)
Houma-terrebonne

Weather History for KHUM - February, 2013

Change the Weather History Date:

Saturday, February 23, 2013

  Actual Average Record
Temperature  
Mean Temperature 56 °F -  
Max Temperature 58 °F 65 °F 81 °F (1962)
Min Temperature 52 °F 46 °F 27 °F (1964)
Degree Days  
Heating Degree Days 10    
Growing Degree Days 6 (Base 50)    
Moisture  
Dew Point 56 °F    
Average Humidity 96    
Maximum Humidity 100    
Minimum Humidity 93    
Precipitation  
Precipitation 0.16 in - - ()
Sea Level Pressure  
Sea Level Pressure 29.91 in    
Wind  
Wind Speed 8 mph (North)    
Max Wind Speed 13 mph    
Max Gust Speed 17 mph    
Visibility 7 miles    
Events Rain , Thunderstorm    
Averages and records for this station are not official NWS values.
T = Trace of Precipitation, MM = Missing Value Source: NWS Daily Summary

Daily Weather History Graph

Daily Weather History Graph

Search for Another Location

Airport or City:

Trip Planner

Search our weather history database for the weather conditions in past years. The results will help you decide how hot, cold, wet, or windy it might be!

Date:

Astronomy

Feb. 23, 2013 Rise Set
Actual Time 6:34 AM CST 5:58 PM CST
Civil Twilight 6:10 AM CST 6:22 PM CST
Nautical Twilight 5:42 AM CST 6:49 PM CST
Astronomical Twilight 5:14 AM CST 7:17 PM CST
Moon 4:12 PM CST (2/23) 4:50 AM CST (2/23)
Length of Visible Light 12h 11m
Length of Day
11h 23m
Waxing Gibbous, 95% of the Moon is Illuminated
Feb 23
Waxing Gibbous
Feb 25
Full
Mar 4
Last Quarter
Mar 11
New
Mar 19
First Quarter

Hourly Weather History & Observations

Time (CST) Temp. Dew Point Humidity Pressure Visibility Wind Dir Wind Speed Gust Speed Precip Events Conditions
12:15 AM 58.1 °F 58.1 °F 100% 29.90 in 4.0 mi North 9.2 mph - N/A   Overcast
12:35 AM 58.1 °F 58.1 °F 100% 29.89 in 4.0 mi North 8.1 mph - N/A   Overcast
12:55 AM 57.2 °F 57.2 °F 100% 29.89 in 4.0 mi North 6.9 mph - N/A   Overcast
1:15 AM 56.3 °F 56.3 °F 100% 29.88 in 4.0 mi North 9.2 mph - N/A Thunderstorm Overcast
1:35 AM 55.9 °F 55.9 °F 100% 29.91 in 3.0 mi NW 9.2 mph - 0.01 in Thunderstorm Overcast
2:15 AM 55.6 °F 55.6 °F 100% 29.89 in 4.0 mi North 5.8 mph - N/A   Overcast
2:35 AM 55.6 °F 55.6 °F 100% 29.88 in 3.0 mi North 9.2 mph - N/A Rain Rain
3:15 AM 55.6 °F 55.6 °F 100% 29.88 in 7.0 mi North 11.5 mph - N/A Thunderstorm Overcast
3:35 AM 55.8 °F 55.8 °F 100% 29.89 in 7.0 mi North 9.2 mph - N/A Rain Light Rain
3:55 AM 55.6 °F 55.6 °F 100% 29.89 in 7.0 mi North 12.7 mph 17.3 mph N/A Thunderstorm Overcast
4:15 AM 55.4 °F 55.0 °F 99% 29.90 in 10.0 mi North 11.5 mph 16.1 mph N/A Rain Light Rain
4:35 AM 55.4 °F 55.0 °F 99% 29.89 in 10.0 mi North 10.4 mph - N/A Rain , Thunderstorm Light Thunderstorms and Rain
4:55 AM 55.0 °F 55.0 °F 100% 29.91 in 4.0 mi North 11.5 mph - 0.15 in Rain , Thunderstorm Heavy Thunderstorms and Rain
5:50 AM 55.4 °F 55.4 °F 100% 29.89 in 5.0 mi North 11.5 mph - N/A   Mostly Cloudy
6:50 AM 55.4 °F 55.4 °F 100% 29.90 in 5.0 mi NE 11.5 mph - N/A   Overcast
7:27 AM 57.2 °F 55.4 °F 94% 29.92 in 7.0 mi NE 11.5 mph - N/A   Mostly Cloudy
7:50 AM 57.2 °F 55.4 °F 94% 29.92 in 7.0 mi NNE 11.5 mph - N/A   Mostly Cloudy
8:50 AM 57.2 °F 55.4 °F 94% 29.92 in 7.0 mi NNE 11.5 mph - N/A   Mostly Cloudy
9:20 AM 57.2 °F 55.4 °F 94% 29.93 in 7.0 mi NNE 11.5 mph - N/A   Mostly Cloudy
9:50 AM 57.2 °F 55.4 °F 94% 29.94 in 7.0 mi NNE 11.5 mph - N/A   Overcast
10:10 AM 57.2 °F 55.4 °F 94% 29.93 in 7.0 mi NNE 11.5 mph - N/A   Overcast
10:50 AM 57.2 °F 55.4 °F 94% 29.93 in 7.0 mi NNE 11.5 mph - N/A   Overcast
12:50 PM 57.2 °F 55.4 °F 94% 29.91 in 5.0 mi North 5.8 mph - N/A   Overcast
1:50 PM 57.2 °F 55.4 °F 94% 29.86 in 5.0 mi North 5.8 mph - N/A   Overcast
2:50 PM 57.2 °F 55.4 °F 94% 29.88 in 5.0 mi North 5.8 mph - N/A   Overcast
3:50 PM 57.2 °F 55.4 °F 94% 29.88 in 5.0 mi NNW 5.8 mph - N/A   Overcast
4:50 PM 57.2 °F 55.4 °F 94% 29.88 in 5.0 mi NNW 5.8 mph - N/A   Overcast
5:50 PM 57.2 °F 55.4 °F 94% 29.90 in 5.0 mi NNW 5.8 mph - N/A   Overcast
6:15 PM 58.1 °F 56.3 °F 94% 29.90 in 7.0 mi NNW 5.8 mph - N/A   Overcast
6:35 PM 58.3 °F 56.3 °F 93% 29.90 in 7.0 mi North 3.5 mph - N/A   Overcast
6:48 PM 57.2 °F 55.4 °F 94% 29.90 in 5.0 mi NNW 5.8 mph - N/A   Overcast
6:55 PM 58.3 °F 56.3 °F 93% 29.91 in 10.0 mi North 3.5 mph - N/A   Overcast
7:15 PM 58.3 °F 56.3 °F 93% 29.91 in 10.0 mi NNE 3.5 mph - N/A   Overcast
7:35 PM 58.1 °F 55.9 °F 93% 29.92 in 7.0 mi Calm Calm - N/A   Overcast
7:55 PM 58.1 °F 56.3 °F 94% 29.92 in 10.0 mi Calm Calm - N/A   Overcast
8:15 PM 57.9 °F 56.3 °F 94% 29.93 in 7.0 mi Calm Calm - N/A   Overcast
8:35 PM 58.1 °F 56.3 °F 94% 29.93 in 10.0 mi NNE 3.5 mph - N/A   Overcast
8:55 PM 58.1 °F 56.1 °F 93% 29.94 in 7.0 mi North 3.5 mph - N/A   Overcast
9:15 PM 57.7 °F 56.3 °F 95% 29.94 in 7.0 mi North 3.5 mph - N/A   Overcast
9:35 PM 58.1 °F 56.1 °F 93% 29.95 in 7.0 mi North 3.5 mph - N/A   Overcast
9:55 PM 58.1 °F 56.3 °F 94% 29.95 in 10.0 mi North 3.5 mph - N/A   Overcast
10:35 PM 56.3 °F 54.3 °F 93% 29.95 in 10.0 mi Calm Calm - N/A   Scattered Clouds
11:15 PM 54.7 °F 53.8 °F 97% 29.93 in 10.0 mi North 3.5 mph - N/A   Clear
11:35 PM 53.6 °F 53.1 °F 98% 29.93 in 7.0 mi Calm Calm - N/A   Clear
11:55 PM 52.9 °F 52.7 °F 99% 29.93 in 7.0 mi Calm Calm - N/A   Clear